EN

Hourly Weather Borovskoe

Today, 16 April, Friday

Time Temperature Precipitation Wind Pressure Humidity
00:00 +3°C° 0 mm 4 mps 756 mmHg 77%
01:00 +1°C° 0 mm 4 mps 756 mmHg 78%
02:00 +1°C° 0 mm 4 mps 756 mmHg 80%
03:00 +1°C° 0 mm 4 mps 756 mmHg 80%
04:00 0°C° 0 mm 4 mps 756 mmHg 81%
05:00 0°C° 0 mm 4 mps 756 mmHg 82%
06:00 +1°C° 0 mm 4 mps 756 mmHg 78%
07:00 +2°C° 0 mm 5 mps 757 mmHg 74%
08:00 +3°C° 0 mm 5 mps 757 mmHg 70%
09:00 +5°C° 0 mm 5 mps 757 mmHg 66%
10:00 +7°C° 0 mm 5 mps 757 mmHg 61%
11:00 +8°C° 0 mm 5 mps 757 mmHg 56%
12:00 +9°C° 0 mm 5 mps 757 mmHg 53%
13:00 +9°C° 0 mm 5 mps 757 mmHg 50%
14:00 +10°C° 0 mm 5 mps 757 mmHg 46%
15:00 +10°C° 0 mm 5 mps 757 mmHg 46%
16:00 +9°C° 0 mm 5 mps 757 mmHg 46%
17:00 +10°C° 0 mm 4 mps 757 mmHg 46%
18:00 +8°C° 0 mm 4 mps 757 mmHg 50%
19:00 +7°C° 0 mm 4 mps 757 mmHg 54%
20:00 +6°C° 0 mm 4 mps 758 mmHg 59%
21:00 +5°C° 0 mm 4 mps 758 mmHg 62%
22:00 +4°C° 0 mm 4 mps 758 mmHg 65%
23:00 +4°C° 0 mm 4 mps 758 mmHg 67%

Tomorrow, 17 April, Saturday

Time Temperature Precipitation Wind Pressure Humidity
00:00 +3°C° 0 mm 4 mps 758 mmHg 70%
01:00 +3°C° 0 mm 4 mps 758 mmHg 72%
02:00 +1°C° 0 mm 4 mps 758 mmHg 75%
03:00 +1°C° 0 mm 4 mps 758 mmHg 76%
04:00 +1°C° 0 mm 4 mps 758 mmHg 77%
05:00 0°C° 0 mm 4 mps 758 mmHg 77%
06:00 +3°C° 0 mm 4 mps 758 mmHg 71%
07:00 +4°C° 0 mm 4 mps 758 mmHg 64%
08:00 +6°C° 0 mm 4 mps 759 mmHg 57%
09:00 +7°C° 0 mm 5 mps 759 mmHg 52%
10:00 +8°C° 0 mm 5 mps 759 mmHg 46%
11:00 +10°C° 0 mm 5 mps 759 mmHg 41%
12:00 +10°C° 0 mm 5 mps 758 mmHg 39%
13:00 +12°C° 0 mm 5 mps 758 mmHg 38%
14:00 +12°C° 0 mm 5 mps 758 mmHg 36%
15:00 +12°C° 0 mm 4 mps 758 mmHg 39%
16:00 +11°C° 0 mm 4 mps 758 mmHg 42%
17:00 +11°C° 0 mm 4 mps 758 mmHg 45%
18:00 +9°C° 0 mm 3 mps 758 mmHg 52%
19:00 +8°C° 0 mm 3 mps 758 mmHg 59%
20:00 +5°C° 0 mm 3 mps 758 mmHg 66%
21:00 +5°C° 0 mm 3 mps 758 mmHg 68%
22:00 +4°C° 0 mm 3 mps 758 mmHg 70%
23:00 +3°C° 0 mm 3 mps 758 mmHg 72%

Day after tomorrow, 18 April, Sunday

Time Temperature Precipitation Wind Pressure Humidity
00:00 +3°C° 0 mm 3 mps 758 mmHg 75%
01:00 +2°C° 0 mm 3 mps 758 mmHg 77%
02:00 +2°C° 0 mm 3 mps 758 mmHg 80%
03:00 +2°C° 0 mm 3 mps 758 mmHg 81%
04:00 +2°C° 0 mm 3 mps 758 mmHg 81%
05:00 +1°C° 0 mm 3 mps 758 mmHg 82%
06:00 +3°C° 0 mm 3 mps 758 mmHg 74%
07:00 +5°C° 0 mm 4 mps 758 mmHg 67%
08:00 +7°C° 0 mm 4 mps 758 mmHg 59%
09:00 +8°C° 0 mm 4 mps 758 mmHg 54%
10:00 +9°C° 0 mm 5 mps 757 mmHg 49%
11:00 +10°C° 0 mm 5 mps 757 mmHg 44%
12:00 +10°C° 0 mm 5 mps 757 mmHg 43%
13:00 +12°C° 0 mm 5 mps 757 mmHg 41%
14:00 +12°C° 0 mm 5 mps 757 mmHg 40%
15:00 +12°C° 0 mm 5 mps 757 mmHg 43%
16:00 +11°C° 0 mm 4 mps 757 mmHg 46%
17:00 +11°C° 0 mm 4 mps 757 mmHg 49%
18:00 +10°C° 0 mm 4 mps 757 mmHg 55%
19:00 +8°C° 0 mm 3 mps 757 mmHg 60%
20:00 +7°C° 0 mm 3 mps 757 mmHg 66%
21:00 +7°C° 0 mm 3 mps 757 mmHg 68%
22:00 +5°C° 0 mm 3 mps 757 mmHg 71%
23:00 +5°C° 0 mm 4 mps 757 mmHg 73%

19 April, Monday

Time Temperature Precipitation Wind Pressure Humidity
00:00 +5°C° 0 mm 4 mps 757 mmHg 76%
01:00 +4°C° 0 mm 3 mps 758 mmHg 80%
02:00 +4°C° 0 mm 3 mps 758 mmHg 83%
03:00 +4°C° 0 mm 3 mps 758 mmHg 85%
04:00 +3°C° 0 mm 3 mps 758 mmHg 87%
05:00 +3°C° 0 mm 3 mps 758 mmHg 89%
06:00 +4°C° 0 mm 3 mps 758 mmHg 84%
07:00 +5°C° 0 mm 3 mps 758 mmHg 78%
08:00 +6°C° 0 mm 4 mps 758 mmHg 73%
09:00 +7°C° 0 mm 4 mps 758 mmHg 69%
10:00 +7°C° 0 mm 4 mps 758 mmHg 65%
11:00 +8°C° 0 mm 4 mps 758 mmHg 61%
12:00 +8°C° 0 mm 4 mps 758 mmHg 60%
13:00 +8°C° 0 mm 4 mps 758 mmHg 59%
14:00 +8°C° 0 mm 4 mps 758 mmHg 58%
15:00 +8°C° 0 mm 4 mps 758 mmHg 59%
16:00 +8°C° 0 mm 4 mps 757 mmHg 60%
17:00 +8°C° 0 mm 4 mps 757 mmHg 61%
18:00 +8°C° 0 mm 3 mps 757 mmHg 63%
19:00 +7°C° 0 mm 3 mps 757 mmHg 65%
20:00 +7°C° 0 mm 3 mps 757 mmHg 66%
21:00 +5°C° 0 mm 3 mps 757 mmHg 67%
22:00 +4°C° 0 mm 3 mps 757 mmHg 67%
23:00 +3°C° 0 mm 3 mps 756 mmHg 68%

20 April, Tuesday

Time Temperature Precipitation Wind Pressure Humidity
00:00 +3°C° 0 mm 3 mps 756 mmHg 69%
01:00 +2°C° 0 mm 3 mps 756 mmHg 70%
02:00 +2°C° 0 mm 3 mps 756 mmHg 71%
03:00 +1°C° 0 mm 4 mps 755 mmHg 70%
04:00 +1°C° 0 mm 4 mps 755 mmHg 68%
05:00 0°C° 0 mm 4 mps 755 mmHg 67%
06:00 +1°C° 0 mm 4 mps 755 mmHg 64%
07:00 +2°C° 0 mm 5 mps 754 mmHg 61%
08:00 +3°C° 0 mm 5 mps 754 mmHg 58%
09:00 +5°C° 0 mm 5 mps 753 mmHg 57%
10:00 +5°C° 0 mm 6 mps 753 mmHg 56%
11:00 +7°C° 0 mm 6 mps 752 mmHg 55%
12:00 +7°C° 0 mm 6 mps 752 mmHg 55%
13:00 +8°C° 0 mm 6 mps 751 mmHg 55%
14:00 +8°C° 0 mm 7 mps 750 mmHg 56%
15:00 +8°C° 0 mm 7 mps 749 mmHg 57%
16:00 +8°C° 0 mm 7 mps 749 mmHg 58%
17:00 +8°C° 0 mm 7 mps 748 mmHg 60%
18:00 +6°C° 0.2 mm 7 mps 747 mmHg 64%
19:00 +6°C° 0.2 mm 7 mps 746 mmHg 69%
20:00 +5°C° 0.2 mm 7 mps 746 mmHg 74%
21:00 +5°C° 0.7 mm 7 mps 745 mmHg 78%
22:00 +4°C° 0.7 mm 7 mps 744 mmHg 82%
23:00 +4°C° 0.7 mm 7 mps 744 mmHg 87%

21 April, Wednesday

Time Temperature Precipitation Wind Pressure Humidity
00:00 +4°C° 0.5 mm 7 mps 743 mmHg 88%
01:00 +3°C° 0.5 mm 7 mps 742 mmHg 90%
02:00 +3°C° 0.5 mm 6 mps 742 mmHg 92%
03:00 +3°C° 0.3 mm 6 mps 741 mmHg 92%
04:00 +3°C° 0.3 mm 6 mps 741 mmHg 91%
05:00 +3°C° 0.3 mm 6 mps 740 mmHg 91%
06:00 +4°C° 0.3 mm 6 mps 739 mmHg 90%
07:00 +4°C° 0.3 mm 7 mps 739 mmHg 90%
08:00 +4°C° 0.3 mm 7 mps 738 mmHg 90%
09:00 +4°C° 0.3 mm 7 mps 738 mmHg 88%
10:00 +4°C° 0.3 mm 7 mps 739 mmHg 86%
11:00 +4°C° 0.3 mm 6 mps 739 mmHg 84%
12:00 +5°C° 0.1 mm 6 mps 739 mmHg 81%
13:00 +7°C° 0.1 mm 6 mps 739 mmHg 77%
14:00 +8°C° 0.1 mm 7 mps 739 mmHg 73%
15:00 +8°C° 0.2 mm 6 mps 739 mmHg 73%
16:00 +9°C° 0.2 mm 6 mps 739 mmHg 72%
17:00 +9°C° 0.2 mm 6 mps 739 mmHg 72%
18:00 +8°C° 0.1 mm 6 mps 739 mmHg 74%
19:00 +7°C° 0.1 mm 6 mps 739 mmHg 76%
20:00 +7°C° 0.1 mm 6 mps 739 mmHg 78%
21:00 +5°C° 0.2 mm 6 mps 739 mmHg 82%
22:00 +5°C° 0.2 mm 6 mps 739 mmHg 86%
23:00 +4°C° 0.2 mm 6 mps 739 mmHg 90%
Show more

We Need Your Consent

Meteoprog and our Service Providers may store and access personal data such as cookies, device identifiers or other similar technologies on your device and process such data to personalise content and ads, as well as provide social media features and to analyse the traffic.

  • Store and/or access information on your device

    Cookies, device identifiers or other information can be stored or accessed on your device for the purposes indicated above.

  • Personalised ads and content, ad and content measurement, audience insights, and products development

    Ads and content can be personalised based on a profile. More data can be added to better personalise ads and content. Ad and content performance can be measured. Insights about the audience who saw the ads and content can be derived. Such data can be used to develop or improve user’s experience, systems and software.

By clicking ‘I Agree’ you will allow the use of indicated cookies, device identifiers, web beacons or other similar technologies. Your settings can be changed in the browser on your device.

For certain purposes, legitimate interests may be relied on, rather than consent. You can read more about this in our Privacy and Cookie Policy.